sat.trackr.live / text

‹ back to catalog

STARLINK-30041

NORAD 57613 · 2023-119M

PAYLOAD ACTIVE UNKNOWN

§ Identity

Operator
Country
US
Launch date
2023-08-11
Launch site
AFETR
Launch vehicle
Mass (kg)
RCS (m²)

Purposes: comms

External: N2YO · Heavens-Above · Gunter

§ Orbital elements

Epoch: 2026-09-20T16:51:14.862240Z

Period
94.27 min
Inclination
43.0053°
Eccentricity
0.0001714
Mean motion
15.27574774 rev/d
Perigee alt
481.9 km
Apogee alt
484.2 km
Semi-major
6,861.2 km
B*
-2.5028e-6
RAAN
60.0195°
Arg perigee
268.1124°
Mean anomaly
91.9531°
Rev number
17,291

§ Raw data

STARLINK-300411 57613U 23119M   26263.70225535 -.00000331  00000+0 -25028-5 0  99962 57613  43.0053  60.0195 0001714 268.1124  91.9531 15.27574774172914

JSON: /api/v1/satellites/57613 · /tle

For live sub-satellite position, see the globe view (requires WebGL).

§ Visibility from observer

Set your observer location to see the next 7 days of passes ≥ 10°. The values pass through the URL so the page stays shareable.

No JS? Fill the form by hand. The geolocation button needs JavaScript.